Regional Weather Roundup
Issued by NWS

Home | Current Version | Previous Version | Text Only | Print | Product List | Glossary On
Versions: 1 2 3 4 5 6 7 8 9 10 11 12 13 14 15 16 17 18 19 20 21 22 23 24 25 26 27 28
000
ASUS44 KBMX 231110
RWRAL

ALABAMA REGIONAL WEATHER ROUNDUP
NATIONAL WEATHER SERVICE BIRMINGHAM AL
600 AM CDT FRI JUN 23 2017

NOTE: "FAIR" INDICATES FEW OR NO CLOUDS BELOW 12,000 FEET
WITH NO SIGNIFICANT WEATHER AND/OR OBSTRUCTIONS TO VISIBILITY.

THE REMARK "TC" DENOTES TEMPERATURE IN DEGREES CELSIUS.

ALZ001>011-014-016>018-020-231200-
NORTH ALABAMA

CITY           SKY/WX    TMP DP  RH WIND       PRES   REMARKS
MUSCLE SHOALS  CLOUDY    77  70  79 S10       29.87R
HUNTSVILLE     CLOUDY    77  74  90 S9        29.90R
DECATUR        CLOUDY    76  73  91 S10       29.90R
HALEYVILLE     NOT AVBL
GADSDEN        LGT RAIN  74  73  97 S6        29.96R
$$

ALZ012-013-022-023-030>036-040>044-231200-
WEST CENTRAL ALABAMA

CITY           SKY/WX    TMP DP  RH WIND       PRES   REMARKS
TUSCALOOSA     CLOUDY    76  76 100 S8        29.90R
$$

ALZ015-024>027-033>036-040>044-231200-
CENTRAL ALABAMA

CITY           SKY/WX    TMP DP  RH WIND       PRES   REMARKS
BIRMINGHAM     CLOUDY    75  73  93 S13G21    29.96R
MONTGOMERY     CLOUDY    77  72  84 SE6       29.96R
SHELBY CO ARPT CLOUDY    76  75  97 S10       29.95R
MAXWELL AFB    NOT AVBL
GREENVILLE     CLOUDY    76  73  91 S7        29.96R
$$

ALZ019-021-028-029-037-038-045>048-231200-
EAST CENTRAL ALABAMA

CITY           SKY/WX    TMP DP  RH WIND       PRES   REMARKS
ANNISTON       CLOUDY    76  71  85 S5        29.97R
ALEXANDER CITY CLOUDY    74  72  95 S3        29.99R
AUBURN         CLOUDY    73  72  96 S9        30.02R
$$

ALZ051>064-231200-
SOUTHWEST ALABAMA

CITY           SKY/WX    TMP DP  RH WIND       PRES   REMARKS
MOBILE         CLOUDY    79  75  87 S14       29.94R
BROOKLEY FIELD CLOUDY    81  79  94 S12G17    29.95R HX  90
EVERGREEN      CLOUDY    76  74  93 S8        29.97R
$$

ALZ049-050-065>069-231200-
SOUTHEAST ALABAMA

CITY           SKY/WX    TMP DP  RH WIND       PRES   REMARKS
DOTHAN         CLOUDY    76  76 100 S9        30.04R
OZARK          CLOUDY    76  74  96 S8        30.00R
TROY           CLOUDY    75  75 100 S6        30.00R
EUFAULA        MOCLDY    76  74  93 S5        30.00R
$$




USA.gov is the U.S. government's official web portal to all federal, state and local government web resources and services.